Weather History for KGRD - December, 2011

Change the Weather History Date:

Sunday, December 18, 2011

  Actual Average (KAND) Record (KAND)
Temperature  
Mean Temperature 41 °F -  
Max Temperature 55 °F 54 °F 77 °F (1984)
Min Temperature 27 °F 31 °F 11 °F (1953)
Degree Days  
Heating Degree Days 24    
Moisture  
Dew Point 26 °F    
Average Humidity 63    
Maximum Humidity 92    
Minimum Humidity 30    
Precipitation  
Precipitation 0.00 in - - ()
Sea Level Pressure  
Sea Level Pressure 30.32 in    
Wind  
Wind Speed 2 mph (West)    
Max Wind Speed 8 mph    
Max Gust Speed -    
Visibility 10 miles    
Events      
Averages and records for this station are not official NWS values.
T = Trace of Precipitation, MM = Missing Value Source: NWS Daily Summary

Daily Weather History Graph

Daily Weather History Graph

Search for Another Location

Airport or City:

Trip Planner

Search our weather history database for the weather conditions in past years. The results will help you decide how hot, cold, wet, or windy it might be!

Date:

Astronomy

Dec. 18, 2011 Rise Set
Actual Time 7:28 AM EST 5:21 PM EST
Civil Twilight 7:01 AM EST 5:49 PM EST
Nautical Twilight 6:29 AM EST 6:20 PM EST
Astronomical Twilight 5:59 AM EST 6:51 PM EST
Moon 12:41 AM EST (12/18) 12:34 PM EST (12/18)
Length of Visible Light 10h 48m
Length of Day
9h 52m
Last Quarter, 42% of the Moon is Illuminated
Dec 18
Last Quarter
Dec 24
New
Jan 1
First Quarter
Jan 9
Full
Jan 16
Last Quarter

Hourly Weather History & Observations

Time (EST) Temp. Windchill Dew Point Humidity Pressure Visibility Wind Dir Wind Speed Gust Speed Precip Events Conditions
12:56 AM 33.1 °F 28.7 °F 28.9 °F 85% 30.25 in 10.0 mi West 4.6 mph - N/A   Clear
1:56 AM 32.0 °F - 27.0 °F 82% 30.26 in 10.0 mi Calm Calm - N/A   Clear
2:56 AM 32.0 °F 28.7 °F 27.0 °F 82% 30.26 in 10.0 mi WNW 3.5 mph - N/A   Clear
3:56 AM 30.9 °F - 27.0 °F 85% 30.28 in 10.0 mi Calm Calm - N/A   Clear
4:56 AM 28.9 °F - 26.1 °F 89% 30.28 in 10.0 mi Calm Calm - N/A   Clear
5:56 AM 28.0 °F - 25.0 °F 88% 30.29 in 10.0 mi Calm Calm - N/A   Clear
7:56 AM 27.0 °F - 25.0 °F 92% 30.34 in 10.0 mi Calm Calm - N/A   Clear
8:56 AM 36.0 °F - 28.9 °F 76% 30.35 in 10.0 mi Calm Calm - N/A   Clear
9:56 AM 43.0 °F 39.5 °F 28.0 °F 56% 30.37 in 10.0 mi NE 5.8 mph - N/A   Clear
10:56 AM 46.9 °F - 27.0 °F 46% 30.36 in 10.0 mi Calm Calm - 0.00 in   Clear
11:56 AM 50.0 °F - 25.0 °F 38% 30.33 in 10.0 mi Calm Calm - N/A   Clear
12:56 PM 53.1 °F - 25.0 °F 34% 30.32 in 10.0 mi Calm Calm - N/A   Clear
1:56 PM 54.0 °F - 23.0 °F 30% 30.32 in 10.0 mi WSW 3.5 mph - N/A   Clear
2:56 PM 55.0 °F - 24.1 °F 30% 30.31 in 10.0 mi WSW 8.1 mph - N/A   Clear
3:56 PM 55.0 °F - 24.1 °F 30% 30.31 in 10.0 mi West 5.8 mph - 0.00 in   Clear
4:56 PM 52.0 °F - 25.0 °F 35% 30.32 in 10.0 mi WSW 4.6 mph - N/A   Clear
6:56 PM 43.0 °F - 27.0 °F 53% 30.36 in 10.0 mi Calm Calm - N/A   Clear
7:56 PM 39.0 °F - 28.0 °F 65% 30.37 in 10.0 mi Calm Calm - N/A   Clear
9:56 PM 35.1 °F - 28.0 °F 76% 30.35 in 10.0 mi Calm Calm - N/A   Clear
10:56 PM 33.1 °F - 27.0 °F 78% 30.35 in 10.0 mi Calm Calm - N/A   Clear